Dewpoint
57 57 57 57 57 57 57 58 58 58 58 58 58 58 58 58 58 58 58 58 58 59 59 59 60 60 60 60 61 61 58 45 41 41 36 32 45 57 61 63 64 64 56 38 35 32 31 30 30 32 35 34 35 31 34 39 39 36 30 27 22 25 23 26 21 23 24 22 21 21 21 21 20 21 21 21 21 21 21 23 25 24 26 26 27 38 40 42
56 56 57 57 57 57 57 57 58 58 58 58 58 58 58 58 58 58 58 58 58 58 59 59 60 60 60 60 60 60 53 44 43 41 37 49 60 64 64 66 66 62 52 40 35 32 31 30 31 33 32 30 38 34 36 35 39 35 30 24 22 25 24 29 24 24 20 21 22 21 22 21 21 21 21 20 19 19 19 20 22 21 22 24 30 39 41 42
56 56 56 57 57 57 57 57 57 57 57 58 58 58 58 58 58 58 58 58 58 58 59 59 60 60 60 60 60 59 50 44 28 25 38 61 63 66 65 66 62 59 40 40 41 32 28 28 30 31 33 28 32 33 36 33 37 36 31 27 26 26 26 29 28 25 23 23 23 23 24 21 20 21 22 21 19 19 18 19 20 20 20 21 25 38 40 41
56 56 56 56 57 57 57 57 57 57 57 57 57 58 57 57 57 58 58 58 58 58 58 59 59 60 59 60 60 55 41 25 13 21 32 56 65 67 67 66 63 55 41 42 40 32 31 31 31 31 32 29 31 38 34 35 32 34 31 30 30 30 27 27 27 27 26 25 25 25 23 21 22 20 20 19 20 21 21 21 20 19 19 20 22 36 39 40
56 56 56 56 56 56 56 57 57 57 57 57 57 57 57 58 58 58 58 58 58 58 59 59 59 60 60 60 59 45 29 15 16 20 26 63 65 66 67 66 61 42 40 35 31 29 29 29 29 31 31 25 30 33 34 34 34 34 32 32 31 29 27 27 27 28 28 27 27 23 22 23 21 21 20 20 19 21 21 21 20 20 20 20 21 34 38 39
56 55 56 56 56 57 56 57 57 57 57 57 57 57 58 58 58 58 58 58 58 58 59 59 59 59 60 60 49 40 26 11 18 34 60 65 66 67 66 64 55 37 35 32 32 30 29 28 27 28 25 25 27 26 26 34 33 28 29 32 33 31 28 28 27 27 26 24 22 25 25 23 23 22 21 20 20 22 23 22 20 20 20 20 25 35 36 38
56 56 56 56 57 58 57 57 57 57 57 57 57 57 58 58 58 58 58 58 58 58 58 59 59 59 60 56 44 32 22 23 28 38 63 66 66 66 64 62 55 42 36 33 30 31 29 27 27 28 27 26 25 27 26 31 34 30 27 29 28 31 31 31 30 28 26 26 27 27 25 25 25 24 22 20 20 21 22 22 20 20 21 22 24 33 33 36
57 56 57 57 58 58 57 57 57 57 57 57 57 57 58 58 58 58 58 57 57 58 58 58 58 59 59 39 32 26 31 27 26 41 63 64 60 59 54 48 46 41 35 33 29 31 28 26 26 28 25 24 24 26 27 26 32 32 30 30 29 29 30 30 30 29 29 28 28 26 25 25 25 24 20 20 20 20 21 21 21 20 21 20 21 24 31 33
58 57 56 57 58 57 58 57 57 57 57 57 57 57 58 58 57 58 58 57 58 58 58 58 58 59 57 38 29 23 20 36 33 36 56 54 52 49 47 44 44 39 37 34 30 30 30 28 27 27 23 24 25 24 25 23 21 30 29 30 30 28 27 27 26 25 26 25 24 22 21 21 21 21 20 20 21 21 22 21 21 21 21 20 20 21 24 29
58 58 57 57 58 58 57 57 57 57 57 57 57 57 57 57 57 57 58 58 57 58 58 58 58 58 43 30 27 19 27 33 43 52 51 51 48 45 39 42 41 35 32 34 28 27 26 26 27 30 28 25 26 23 25 24 21 28 29 29 27 26 24 22 22 21 22 22 21 20 20 20 21 21 18 20 20 21 21 20 20 20 19 19 20 21 21 26
57 57 57 57 58 57 57 57 56 56 57 57 57 57 57 57 57 57 57 57 57 57 58 58 58 54 39 31 24 17 31 42 44 50 50 47 44 41 40 44 42 34 29 31 30 28 28 27 33 32 30 23 25 24 24 23 24 22 23 21 21 21 21 21 21 20 20 19 20 20 20 20 20 21 18 17 18 20 18 17 17 18 18 18 19 20 23 23
57 57 57 57 57 57 57 57 56 56 57 57 57 56 57 57 57 57 57 57 57 57 58 57 58 54 40 29 25 23 39 41 47 48 46 43 42 40 41 43 42 39 29 25 30 37 33 31 32 24 18 24 20 22 21 24 23 22 21 20 20 20 19 19 18 19 20 18 21 20 19 18 19 18 18 18 19 18 18 17 17 18 18 19 20 20 21 21
57 57 57 57 56 56 57 57 56 56 56 56 56 56 57 57 57 57 57 57 57 57 58 58 55 53 34 17 22 35 40 42 46 45 43 43 43 42 41 41 41 37 33 25 27 34 35 34 30 26 28 25 22 20 22 24 22 21 20 19 19 18 17 16 18 18 19 18 21 16 10 15 15 15 15 16 16 15 16 17 16 17 18 18 19 20 21 21
58 58 58 57 56 56 57 57 56 56 56 57 57 57 57 57 57 57 57 56 57 57 57 57 53 45 24 16 23 38 45 42 42 43 43 44 36 38 43 42 40 40 39 32 32 41 35 34 30 28 28 25 22 28 23 22 22 20 20 19 19 18 15 16 17 18 16 20 20 14 12 11 11 11 11 14 13 13 12 13 15 17 17 18 19 20 21 21
57 57 58 57 56 56 56 56 56 56 56 57 57 57 57 57 57 57 57 57 57 58 58 57 50 29 22 21 32 39 54 38 37 39 42 39 36 35 39 40 37 37 36 39 40 41 36 32 29 27 24 25 23 22 21 20 21 22 16 17 20 17 17 16 19 19 16 16 20 14 15 12 11 11 12 14 18 17 16 16 16 17 18 18 19 18 18 19
58 58 58 57 56 56 56 56 56 56 56 56 56 56 57 57 57 57 57 58 57 57 55 44 45 30 19 20 30 48 38 36 34 39 42 42 39 35 37 38 36 33 31 30 37 31 29 25 25 26 23 23 21 21 21 20 21 23 16 18 17 19 17 16 16 17 17 17 19 14 10 13 13 16 16 16 18 18 17 17 17 17 17 17 17 17 17 18
58 58 57 57 56 56 57 57 56 56 56 56 56 57 57 56 58 56 58 59 57 56 47 36 46 40 23 26 31 23 23 36 41 41 41 41 39 37 35 34 31 29 29 29 31 30 26 23 25 24 25 22 21 23 18 19 18 19 20 17 21 16 14 12 15 14 20 15 14 16 14 13 12 12 13 15 16 16 16 16 16 16 16 16 17 17 17 17
58 58 58 57 56 57 57 56 56 56 56 56 56 56 54 56 57 55 56 55 55 52 50 48 43 28 28 30 24 22 40 38 40 39 40 40 39 33 33 31 29 27 26 25 27 22 28 20 27 23 23 23 21 21 19 13 16 16 15 15 13 17 17 15 15 12 15 17 13 15 16 15 15 15 16 16 17 17 16 16 16 16 16 16 16 17 17 17
58 58 58 57 57 57 57 57 56 56 56 57 57 53 54 54 45 48 50 46 34 31 28 35 25 25 25 23 28 30 40 42 40 39 38 40 39 33 33 30 29 26 26 23 25 21 28 29 29 23 20 20 19 19 18 16 16 14 14 13 13 13 12 12 14 16 16 14 13 12 11 11 12 12 14 15 16 16 15 14 14 15 16 16 16 17 17 17
58 58 58 58 57 57 57 57 56 56 57 56 50 43 37 34 30 31 34 40 39 28 29 31 30 26 29 27 29 34 44 39 35 37 38 40 34 32 31 29 31 27 24 25 28 24 27 23 22 22 20 19 19 20 19 18 18 17 18 17 14 14 13 14 13 13 14 13 13 12 12 12 12 13 13 13 13 14 14 14 14 15 15 16 16 16 17 17
59 59 58 57 57 58 57 57 57 56 57 51 43 29 21 28 23 22 31 32 37 39 37 36 33 30 25 32 37 37 30 28 37 38 38 41 34 31 31 27 27 26 26 27 27 27 25 23 23 23 20 19 19 19 19 18 18 18 19 19 16 19 15 15 14 15 17 15 14 13 13 14 14 15 15 16 15 15 15 15 15 15 15 15 16 17 17 17
59 59 58 58 57 57 57 57 57 56 56 43 40 34 32 36 35 34 27 26 32 33 34 36 33 33 34 34 36 35 33 28 30 37 38 38 33 29 27 27 26 25 28 28 25 24 23 22 22 23 23 22 21 19 18 18 18 19 18 18 18 17 19 18 17 18 18 17 16 17 16 16 16 16 16 16 16 16 16 16 15 15 15 17 17 17 17 19
58 58 58 58 58 57 57 57 56 56 44 43 40 38 37 40 41 41 39 33 32 34 31 31 28 30 30 29 29 33 29 27 24 32 36 37 31 30 27 27 26 26 27 25 23 24 22 25 24 23 23 22 22 21 20 20 21 19 19 18 17 18 17 15 18 18 17 17 16 17 16 16 16 17 16 16 16 16 18 17 18 18 17 17 16 16 18 18
58 58 58 58 58 57 57 57 56 50 45 41 41 40 40 41 42 43 36 32 31 33 35 35 29 28 27 26 28 29 27 26 26 26 34 33 30 32 27 27 26 25 24 24 23 22 20 23 25 24 24 22 21 21 21 20 18 22 21 20 18 19 18 17 15 18 18 18 19 17 15 13 14 15 15 16 18 17 17 17 17 19 22 21 26 24 24 22
58 58 58 58 58 57 56 56 49 46 44 44 42 42 41 41 41 40 36 32 29 30 37 31 32 31 27 35 34 27 28 28 26 28 37 32 26 26 25 27 25 24 24 24 24 24 23 24 26 24 25 23 23 21 22 23 19 21 23 21 19 18 17 17 18 19 18 17 19 16 11 11 15 16 17 16 16 15 16 16 16 16 17 18 18 18 20 27
58 58 58 58 58 57 57 50 46 45 46 44 44 42 41 41 41 39 31 29 30 32 31 28 33 29 33 28 32 31 26 24 30 32 39 33 35 25 23 23 24 23 23 24 23 25 23 24 25 23 24 24 23 22 23 23 20 20 18 23 20 19 20 20 20 19 17 12 16 19 12 13 15 13 14 14 14 14 14 16 15 16 16 17 18 19 20 21
58 58 58 58 58 57 51 46 48 46 46 46 44 43 41 42 41 40 29 27 26 30 29 32 30 30 32 30 29 25 22 26 32 33 33 37 30 34 21 21 20 20 23 23 22 17 22 22 22 24 23 24 23 21 23 22 22 19 23 24 23 21 21 21 20 20 18 22 23 20 16 14 14 15 15 14 13 13 14 14 16 16 16 16 17 19 19 21
58 58 58 58 58 56 52 51 49 48 48 47 45 44 43 42 41 39 28 27 24 29 27 27 30 32 33 32 29 21 23 24 22 30 31 34 32 26 23 21 20 20 18 20 18 23 21 21 22 22 22 23 21 21 25 23 21 21 23 24 23 21 21 21 21 20 20 19 19 20 20 15 16 16 16 15 14 14 14 15 16 16 17 17 18 19 20 21
58 58 58 58 58 57 55 53 49 48 48 47 46 45 44 40 36 30 30 27 30 26 31 27 33 28 28 28 24 24 22 23 17 22 31 32 33 27 24 25 20 20 20 21 19 20 18 20 23 23 23 20 23 23 25 25 21 23 25 26 25 25 24 22 20 20 19 16 16 18 19 13 13 16 15 16 15 15 15 16 16 17 17 18 19 20 21 21
56 58 58 58 57 56 54 53 52 51 48 47 46 44 42 40 29 27 28 27 30 28 27 28 27 25 26 24 23 25 22 23 25 26 27 29 29 28 24 26 22 23 24 25 23 22 22 29 27 22 21 19 21 22 26 24 22 26 25 23 24 23 22 22 21 20 17 13 17 18 19 15 12 15 16 17 19 15 15 16 16 17 18 17 17 18 21 21
53 55 57 57 55 55 54 51 53 50 48 47 44 43 43 41 33 29 30 33 33 32 26 27 25 28 24 24 22 24 23 24 23 26 24 26 26 26 25 22 26 25 22 22 22 24 23 23 23 27 25 24 21 23 26 26 26 24 23 21 19 19 18 16 12 16 12 14 16 18 19 16 12 14 15 14 15 14 15 15 15 14 14 17 18 18 20 21
52 53 56 57 56 56 53 52 52 49 48 47 49 49 45 39 36 31 31 37 31 33 27 25 26 27 25 25 25 25 23 22 23 24 22 24 25 24 23 22 23 18 23 18 23 23 19 22 25 24 31 21 22 20 20 26 25 24 22 20 14 14 14 8 8 8 10 14 17 19 19 15 14 15 15 16 16 16 15 14 14 14 14 16 17 18 21 23
51 52 55 56 55 55 54 52 50 50 50 50 50 48 40 35 31 34 33 32 34 27 26 29 26 26 28 28 27 26 26 22 23 23 25 24 24 26 27 24 27 24 23 22 18 19 21 23 21 23 23 26 23 18 19 19 23 23 20 21 15 10 7 6 5 3 8 14 17 18 18 15 16 16 17 16 16 16 16 16 16 16 16 17 18 19 21 23
50 52 55 55 57 56 53 51 51 51 51 51 48 44 38 32 31 39 34 33 34 33 34 32 30 26 26 28 30 26 25 26 24 22 23 23 22 22 23 24 24 24 21 20 17 18 15 20 24 21 20 25 22 19 21 21 23 22 23 21 20 17 10 10 9 15 16 19 14 15 13 15 12 17 18 17 16 16 17 17 18 19 20 20 20 22 21 21
50 53 55 56 56 56 52 52 51 52 52 50 44 40 34 34 33 31 31 31 32 33 31 34 32 30 31 28 28 28 29 33 27 25 24 23 21 22 22 21 24 26 24 19 23 17 18 20 23 24 25 25 23 25 26 24 21 23 25 23 16 19 20 16 20 19 18 18 13 10 16 16 16 18 19 19 19 18 18 18 19 17 15 17 18 20 21 22
52 54 56 54 54 55 52 52 52 52 52 48 40 35 35 35 30 31 32 35 33 32 32 33 32 31 31 30 30 28 30 29 28 25 25 25 25 22 24 23 23 23 21 21 23 18 21 19 25 23 25 23 23 25 22 22 15 21 22 18 23 25 21 20 21 20 20 17 17 19 17 19 18 18 18 18 15 15 14 14 13 12 16 19 19 21 22 22
48 51 52 53 54 54 53 52 53 52 50 46 40 35 39 36 36 33 40 33 34 35 33 32 34 32 31 31 30 29 29 28 28 26 26 28 24 25 24 25 25 23 22 23 22 26 23 23 25 22 22 23 25 25 25 25 23 22 19 22 24 28 27 19 17 16 17 17 18 20 19 18 17 18 23 18 16 14 13 13 13 16 17 15 20 22 22 22
47 49 52 53 54 54 53 53 53 51 48 43 37 40 38 37 36 37 36 35 35 35 33 33 33 33 32 31 32 29 31 28 34 27 29 27 28 29 26 24 26 22 23 25 21 26 28 21 23 25 26 26 26 26 26 26 26 21 25 28 20 20 19 19 20 16 17 17 18 18 18 18 19 18 18 18 18 18 15 16 16 15 14 16 17 19 22 22
47 49 46 51 53 53 52 53 52 49 44 39 37 38 40 39 36 35 37 36 36 35 33 33 33 35 34 32 33 32 32 29 31 28 28 31 26 28 25 28 27 25 24 25 23 27 25 23 25 29 27 26 26 26 24 24 27 26 25 24 26 21 21 21 22 21 19 18 19 19 18 19 22 18 18 18 18 18 16 15 15 14 14 14 18 21 22 23
47 46 44 50 52 52 52 53 49 46 43 36 38 39 38 36 37 37 37 37 35 35 34 33 34 35 34 35 33 33 32 32 31 31 30 34 29 34 29 32 28 27 25 25 26 31 26 27 22 26 30 28 26 26 26 27 25 23 26 22 22 23 25 21 21 19 19 19 18 18 18 20 23 20 19 19 18 19 16 16 19 19 19 20 21 22 23 25
48 45 45 52 52 53 52 49 44 40 40 38 40 40 39 38 37 37 38 39 37 39 36 35 34 34 33 33 34 34 33 32 32 33 32 33 33 31 33 33 29 28 34 32 28 30 29 29 25 25 24 25 26 28 27 28 28 26 24 22 23 22 21 20 19 22 21 19 18 18 17 22 28 23 21 20 20 21 19 18 18 19 20 20 21 24 26 28
46 37 43 52 53 52 48 42 41 41 39 39 39 40 40 43 38 36 37 38 37 35 37 36 36 35 34 35 35 33 34 32 33 32 32 33 34 33 33 33 30 31 30 29 29 33 31 31 29 28 28 28 30 30 29 27 27 26 25 24 25 23 22 22 19 21 24 21 22 23 20 21 33 27 23 22 22 23 23 25 25 24 24 26 28 28 29 29
43 40 48 50 53 51 47 40 42 40 39 40 42 41 39 38 36 35 36 36 36 36 35 36 36 36 35 36 35 34 35 33 33 33 32 32 34 35 36 35 35 34 29 32 34 35 36 27 26 29 31 31 30 31 31 26 27 28 28 28 27 25 23 22 22 22 23 23 23 22 22 25 26 25 24 24 24 25 26 28 28 28 28 29 28 28 28 27
42 42 44 50 52 50 44 36 35 38 39 41 41 40 39 39 36 36 36 35 37 36 37 35 35 37 36 35 34 34 34 32 34 35 34 33 34 36 35 36 35 32 34 33 31 32 26 28 28 26 26 27 27 29 29 28 29 27 27 29 29 29 28 28 29 28 25 25 25 23 20 23 32 30 29 29 26 26 27 27 28 28 28 28 27 26 26 26
39 40 43 46 50 48 40 41 39 38 38 39 39 39 40 39 38 39 39 37 38 38 36 35 37 35 35 35 35 35 34 34 31 33 33 31 33 30 32 33 36 35 35 36 37 35 30 28 29 23 21 20 19 19 18 20 23 26 27 28 29 29 29 28 25 24 23 25 26 25 24 26 26 27 27 28 32 30 28 27 26 27 26 26 25 25 25 24
35 22 28 41 46 45 44 45 42 40 37 36 37 38 39 38 38 36 38 39 39 37 38 36 34 32 34 34 33 33 33 32 34 31 31 30 30 30 32 31 34 34 36 38 30 34 32 31 31 29 27 25 25 27 29 31 28 26 25 25 26 26 27 28 28 27 24 25 25 26 27 26 27 27 28 30 27 28 27 26 26 26 26 25 25 25 25 24
33 29 27 23 39 41 40 43 41 41 37 39 34 36 36 37 38 38 39 36 36 38 36 37 34 33 32 34 34 33 34 33 33 33 34 34 31 30 30 31 32 33 37 35 34 33 31 30 31 31 30 30 30 31 31 31 29 29 28 28 29 29 29 28 27 25 26 26 23 26 27 26 27 27 26 25 23 25 27 25 25 26 26 25 25 24 26 23
24 24 32 34 34 30 35 36 40 39 40 37 35 34 33 32 32 32 33 35 34 34 34 33 37 36 35 34 32 32 32 32 31 31 32 31 31 28 28 29 29 30 31 28 30 33 30 29 31 32 31 31 31 31 31 30 30 30 30 30 30 30 29 28 28 29 29 27 25 28 29 29 29 31 27 24 24 23 27 24 25 26 26 25 25 24 23 22
31 29 29 32 29 32 33 33 33 35 35 38 36 34 32 32 31 31 31 31 34 34 36 33 34 36 35 34 32 32 32 29 28 31 30 27 27 27 26 28 30 28 27 26 27 30 29 27 29 29 28 29 29 30 31 30 29 29 29 29 30 29 29 29 29 29 29 28 28 28 29 29 25 23 25 25 23 23 27 25 23 22 22 23 24 23 23 22
25 29 27 32 32 31 31 31 31 32 32 34 34 36 35 33 31 31 30 30 29 30 33 34 33 33 33 33 34 32 32 32 31 29 29 28 25 29 28 30 28 26 27 25 27 30 31 23 31 27 25 25 26 28 28 27 26 25 27 28 30 30 30 29 29 28 29 28 29 30 29 29 22 23 23 24 21 21 22 23 22 22 21 20 20 21 23 22
32 33 34 30 27 28 27 27 29 28 29 32 32 33 35 35 35 34 33 35 32 30 31 31 30 30 30 30 31 33 33 30 31 30 30 28 26 28 25 24 27 23 24 24 28 28 28 26 26 24 21 20 22 22 21 22 22 22 22 23 23 23 23 24 25 25 25 24 25 24 23 23 20 22 23 22 21 18 18 18 23 22 21 18 17 18 21 22
29 29 33 31 25 27 24 26 26 27 24 28 30 32 32 32 28 30 30 33 30 31 31 30 29 29 29 30 30 32 32 31 29 29 32 30 32 29 28 27 25 25 26 26 27 24 26 24 21 20 18 17 20 21 20 20 18 15 15 16 17 17 19 21 23 22 24 26 23 23 22 20 21 24 21 21 21 18 17 17 22 22 21 17 16 18 21 22